Regional Weather Roundup
Issued by NWS Sterling, VA

Home | Current Version | Previous Version | Graphics & Text | Print | Product List | Glossary On
Versions: 1 2 3 4 5 6 7 8 9 10 11 12 13 14 15 16 17 18 19 20 21 22 23 24 25 26 27 28 29 30 31 32 33 34 35 36 37 38 39 40 41 42 43 44 45 46 47 48 49 50
000
ASUS41 KLWX 211610
RWRLWX

REGIONAL WEATHER ROUNDUP
NATIONAL WEATHER SERVICE BALTIMORE MD/WASHINGTON DC
1200 PM EDT MON JUL 21 2014

Note: "FAIR" indicates few or no clouds below 12,000 feet
with no significant weather and/or obstructions to visibility.
 TC=TEMPERATURE CELSIUS

 * =Non NWS site. Station does not report precipitation (e.g. rain,
    snow, etc.), thunder, or fog.

DCZ001-MDZ009-015-VAZ040>042-051-053>054-211700-
WASHINGTON METRO
  /KDAA//-FT BELVOIR

CITY           SKY/WX    TMP DP  RH WIND       PRES   REMARKS
WASHINGTON NAT CLOUDY    81  64  56 E3        30.19S
DULLES         CLOUDY    76  66  71 S7        30.20S
ANDREWS AFB    MOSUNNY   79  68  68 E8        30.20S
QUANTICO       CLOUDY    78  68  71 E5        30.20S
COLLEGE PARK*  CLOUDY    79  64  61 E3        30.20R
LEESBURG*      CLOUDY    79  70  73 SE6       30.21S
MANASSAS*      CLOUDY    79  72  78 E3        30.19S
GAITHERSBURG*  PTSUNNY   75  66  73 CALM      30.24S

$$

MDZ006>007-011-014-211700-
BALTIMORE METRO

CITY           SKY/WX    TMP DP  RH WIND       PRES   REMARKS
BWI AIRPORT    PTSUNNY   77  63  61 VRB5      30.20R
MD SCIENCE CTR   N/A     81  61  50 MISG      30.19S
MARTIN STATE   SUNNY     79  68  69 E5        30.21R
ANNAPOLIS      CLOUDY    75  66  73 SE7       30.20R
FORT MEADE*    CLOUDY    77  63  61 S3        30.22R

$$

MDZ012-015-019>023-211700-
MARYLAND EASTERN SHORE

CITY           SKY/WX    TMP DP  RH WIND       PRES   REMARKS
OCEAN CITY     PTSUNNY   76  69  79 NE8       30.20R
SALISBURY      NOT AVBL
BAY BRIDGE AP*   N/A     77  64  65 CALM      30.21R
CAMBRIDGE*     MOSUNNY   79  64  61 SE3       30.20S
EASTON*        MOSUNNY   79  66  65 SE5       30.24R

$$

MDZ017>025-211700-
SOUTHERN MARYLAND

CITY           SKY/WX    TMP DP  RH WIND       PRES   REMARKS
PATUXENT RIVER PTSUNNY   75  68  78 E6        30.20R
ST INIGOES     CLOUDY    77  67  71 E7        30.19R
LEONARDTOWN*   CLOUDY    73  64  73 E5        30.22R

$$

MDZ003>005-211700-
NORTH CENTRAL MARYLAND

CITY           SKY/WX    TMP DP  RH WIND       PRES   REMARKS
FREDERICK*     NOT AVBL
HAGERSTOWN APT CLOUDY    75  67  76 S7        30.20R
WESTMINSTER*   CLOUDY    77  66  69 S5        30.21S

$$

MDZ501>502-211700-
WESTERN MARYLAND

CITY           SKY/WX    TMP DP  RH WIND       PRES   REMARKS
OAKLAND*       CLOUDY    70  68  94 CALM      30.25S
CUMBERLAND*    MOSUNNY   82  68  61 CALM      30.21S

$$

VAZ025>031-211700-
SHENANDOAH VALLEY

CITY           SKY/WX    TMP DP  RH WIND       PRES   REMARKS
WINCHESTER*    CLOUDY    77  68  73 SE5       30.19F
STAUNTON*      CLOUDY    78  65  66 CALM      30.22

$$

WVZ021-048>050-054>055-211700-
EASTERN WEST VIRGINIA PANHANDLE

CITY           SKY/WX    TMP DP  RH WIND       PRES   REMARKS
MARTINSBURG    CLOUDY    76  66  71 SE7       30.19F
PETERSBURG*    MOSUNNY   80  61  52 E7        30.18S

$$

VAZ036>039-050-211700-
CENTRAL FOOTHILLS

CITY           SKY/WX    TMP DP  RH WIND       PRES   REMARKS
CHARLOTTESVILL PTSUNNY   76  69  79 N5        30.19F
ORANGE*        PTSUNNY   79  70  73 NE5       30.20S

$$

VAZ055>057-211700-
NORTH AND CENTRAL PIEDMONT

CITY           SKY/WX    TMP DP  RH WIND       PRES   REMARKS
FREDERICKSBRG* CLOUDY    80  69  69 CALM      30.17F
STAFFORD*      CLOUDY    79  70  73 CALM      30.22F

$$

NCZ024-NYZ072-PAZ021-071-VAZ022-071-211700-
OTHER REGIONAL OBSERVATIONS

CITY           SKY/WX    TMP DP  RH WIND       PRES   REMARKS
NEW YORK CITY  SUNNY     79  60  52 NW3       30.22F
PHILADELPHIA   MOSUNNY   82  58  43 E8        30.19F
PITTSBURGH     MOSUNNY   78  67  68 CALM      30.15F
ROANOKE        LGT RAIN  73  68  84 CALM      30.22F
RICHMOND       LGT RAIN  73  72  94 E5        30.19S FOG
RALEIGH        CLOUDY    78  72  81 E8        30.15S THUNDER

$$

ANZ530>537-211700-
MARINE OBSERVATIONS

STATION/POSITION TIME  TEMP    WIND        PRES
                       AIR SEA DIR/SP/G
                 (UTC) (F)     (DEG/KT/KT) (MB)
THOMAS PT LIGHT  1600   73 79  160/  4/  5 1023.3R
BALT KEY BRIDGE  1600   75     130/  7/  8 1022.3R
COVE POINT       1600   73     160/  3/  4 1022.6R
LEWISETTA        1600   74 79   90/  7/  8 1022.1R
SOLOMONS ISLAND  1600      80                N/A
PINEY POINT      1600          120/  6/  7   N/A

$$




USA.gov is the U.S. government's official web portal to all federal, state and local government web resources and services.